Weather History for Fort Myers Airport, FL

Change the Weather History Date:

Saturday, February 9, 2013

  Actual Average Record
Temperature  
Mean Temperature 67 °F -  
Max Temperature 79 °F 72 °F 88 °F (1949)
Min Temperature 55 °F 51 °F 36 °F (1968)
Cooling Degree Days 2    
Growing Degree Days 17 (Base 50)    
Moisture  
Dew Point 56 °F    
Average Humidity 75    
Maximum Humidity 100    
Minimum Humidity 45    
Precipitation  
Precipitation 0.00 in - - ()
Sea Level Pressure  
Sea Level Pressure 30.11 in    
Wind  
Wind Speed 7 mph (NE)    
Max Wind Speed 14 mph    
Max Gust Speed 22 mph    
Visibility 8 miles    
Events      
Averages and records for this station are not official NWS values.
T = Trace of Precipitation, MM = Missing Value Source: NWS Daily Summary

Daily Weather History Graph

Daily Weather History Graph

Search for Another Location

Airport:

Trip Planner

Search our weather history database for the weather conditions in past years. The results will help you decide how hot, cold, wet, or windy it might be!

Date:

Astronomy

Feb. 09, 2013 Rise Set
Actual Time 7:07 AM EST 6:15 PM EST
Civil Twilight 6:43 AM EST 6:39 PM EST
Nautical Twilight 6:15 AM EST 7:06 PM EST
Astronomical Twilight 5:48 AM EST 7:34 PM EST
Moon 6:18 AM EST (2/9) 5:53 PM EST (2/9)
Length of Visible Light 11h 56m
Length of Day
11h 08m
Waning Crescent, 0% of the Moon is Illuminated
Feb 9
Waning Crescent
Feb 10
New
Feb 17
First Quarter
Feb 25
Full
Mar 4
Last Quarter

Hourly Weather History & Observations

Time (EST) Temp. Dew Point Humidity Pressure Visibility Wind Dir Wind Speed Gust Speed Precip Events Conditions
12:53 AM 61.0 °F 55.9 °F 83% 30.07 in 10.0 mi North 6.9 mph - N/A   Clear
1:53 AM 59.0 °F 55.0 °F 87% 30.07 in 10.0 mi North 6.9 mph - N/A   Clear
2:53 AM 57.9 °F 55.0 °F 90% 30.06 in 10.0 mi NNE 5.8 mph - N/A   Clear
3:53 AM 57.0 °F 54.0 °F 89% 30.06 in 9.0 mi NNE 3.5 mph - N/A   Clear
4:53 AM 55.9 °F 54.0 °F 93% 30.06 in 8.0 mi North 5.8 mph - N/A   Clear
5:30 AM 55.4 °F 53.6 °F 94% 30.08 in 7.0 mi NNE 4.6 mph - N/A   Scattered Clouds
5:39 AM 57.2 °F 53.6 °F 88% 30.09 in 8.0 mi NNE 5.8 mph - N/A   Mostly Cloudy
5:53 AM 57.0 °F 55.0 °F 93% 30.08 in 1.8 mi NE 8.1 mph - N/A   Overcast
6:07 AM 57.2 °F 55.4 °F 94% 30.09 in 0.8 mi NE 5.8 mph - N/A   Overcast
6:53 AM 57.9 °F 55.9 °F 93% 30.10 in 1.2 mi NE 4.6 mph - N/A   Overcast
7:05 AM 57.2 °F 57.2 °F 100% 30.11 in 3.0 mi NNE 5.8 mph - N/A   Overcast
7:53 AM 59.0 °F 57.0 °F 93% 30.13 in 8.0 mi North 6.9 mph - N/A   Overcast
8:48 AM 60.8 °F 55.4 °F 82% 30.15 in 10.0 mi NNE 10.4 mph - N/A   Mostly Cloudy
8:53 AM 60.1 °F 55.0 °F 83% 30.15 in 10.0 mi NNE 5.8 mph - N/A   Mostly Cloudy
9:53 AM 66.0 °F 55.9 °F 70% 30.16 in 10.0 mi NE 12.7 mph - N/A   Clear
10:53 AM 71.1 °F 57.9 °F 63% 30.16 in 10.0 mi ENE 13.8 mph - N/A   Partly Cloudy
11:53 AM 73.9 °F 59.0 °F 59% 30.16 in 10.0 mi ENE 10.4 mph - N/A   Scattered Clouds
12:53 PM 75.0 °F 59.0 °F 57% 30.14 in 10.0 mi ENE 12.7 mph 21.9 mph N/A   Scattered Clouds
1:53 PM 77.0 °F 57.9 °F 52% 30.11 in 10.0 mi East 5.8 mph - N/A   Scattered Clouds
2:53 PM 78.1 °F 55.9 °F 46% 30.10 in 10.0 mi East 8.1 mph - N/A   Clear
3:53 PM 79.0 °F 55.9 °F 45% 30.09 in 10.0 mi East 6.9 mph - N/A   Scattered Clouds
4:53 PM 79.0 °F 55.9 °F 45% 30.09 in 10.0 mi East 9.2 mph - N/A   Partly Cloudy
5:53 PM 75.9 °F 55.9 °F 50% 30.10 in 10.0 mi East 11.5 mph - N/A   Clear
6:53 PM 72.0 °F 55.9 °F 57% 30.12 in 10.0 mi East 10.4 mph - N/A   Clear
7:53 PM 71.1 °F 57.0 °F 61% 30.13 in 10.0 mi East 11.5 mph - N/A   Mostly Cloudy
8:53 PM 69.1 °F 57.9 °F 68% 30.15 in 10.0 mi East 12.7 mph - N/A   Scattered Clouds
9:53 PM 68.0 °F 59.0 °F 73% 30.17 in 10.0 mi East 6.9 mph - N/A   Mostly Cloudy
10:53 PM 66.9 °F 59.0 °F 76% 30.17 in 10.0 mi East 8.1 mph - N/A   Scattered Clouds
11:53 PM 64.9 °F 59.0 °F 81% 30.17 in 10.0 mi ENE 5.8 mph - N/A   Scattered Clouds